This is the latest recevied weather packets stored in our database for station/object WIII. If no packets are shown the sender has not sent any weather packets the latest 1 day(s).
| Time | Temp. | Humidity | Pressure | Rain* | Wind** | Luminosity | Snow |
|---|---|---|---|---|---|---|---|
| 1778100228 | 26.67° C | 88% | 1008 hPa | - | - | - | - |
| 1778099629 | 26.67° C | 88% | 1011 hPa | - | - | - | - |
| 1778095428 | 27.78° C | 83% | 1008 hPa | - | - | - | - |
| 1778094829 | 27.78° C | 83% | 1008 hPa | - | - | - | - |
| 1778093031 | 27.78° C | 83% | 1008 hPa | - | - | - | - |
| 1778091832 | 27.78° C | 88% | 1008 hPa | - | - | - | - |
| 1778090028 | 28.89° C | 83% | 1008 hPa | - | - | - | - |
| 1778089429 | 28.89° C | 83% | 1008 hPa | - | - | - | - |
| 1778088832 | 27.78° C | 88% | 1008 hPa | - | - | - | - |
| 1778086434 | 27.78° C | 88% | 1008 hPa | - | - | - | - |
| 1778085830 | 27.78° C | 88% | 1008 hPa | - | - | - | - |
| 1778084031 | 28.89° C | 79% | 1012 hPa | - | - | - | - |
| 1778081630 | 28.89° C | 83% | 1008 hPa | - | - | - | - |
| 1778079229 | 27.78° C | 88% | 1008 hPa | - | - | - | - |
| 1778076228 | 28.89° C | 83% | 1012 hPa | - | - | - | - |
| 1778075027 | 28.89° C | 83% | 1012 hPa | - | - | - | - |
| 1778074425 | 27.78° C | 88% | 1008 hPa | - | - | - | - |
| 1778073827 | 27.78° C | 88% | 1008 hPa | - | - | - | - |
| 1778070827 | 27.78° C | 83% | 1007 hPa | - | - | - | - |
| 1778069028 | 28.89° C | 83% | 1007 hPa | - | - | - | - |
| 1778068429 | 28.89° C | 83% | 1007 hPa | - | - | - | - |
| 1778064828 | 30° C | 74% | 1006 hPa | - | - | - | - |
| 1778062429 | 30° C | 74% | 1006 hPa | - | - | - | - |
| 1778061830 | 30.56° C | 70% | 1006 hPa | - | - | - | - |
| 1778061231 | 30.56° C | 70% | 1006 hPa | - | - | - | - |
* Rain since midnight (hover to see other rain measurements)
** Current wind speed in m/s (hover to see current wind gust speed)